Location: Aosta
(45.7330°N, 7.3330°E)
Time: 05:49:07
(UTC+01:00)

ISS - Visible Passes

Search period start: 20 January 2019 00:00
Search period end: 30 January 2019 00:00
Orbit: 404 x 410 km, 51.6° (Epoch: 20 January)

Date Brightness Start Highest point End Pass type
(mag) Time Alt. Az. Time Alt. Az. Time Alt. Az.
21 Jan -1.3 18:45:58 10° SE 18:46:04 10° SE 18:46:04 10° SE visible
22 Jan -2.1 19:28:08 10° SSW 19:29:55 26° SSW 19:29:55 26° SSW visible
23 Jan -2.3 18:37:19 10° SSW 18:39:59 23° SE 18:40:56 20° ESE visible
23 Jan -0.7 20:13:02 10° WSW 20:13:40 15° WSW 20:13:40 15° WSW visible
24 Jan -3.7 19:21:36 10° WSW 19:24:36 72° SW 19:24:36 72° SW visible
25 Jan -3.4 18:30:20 10° SW 18:33:32 50° SE 18:35:27 21° ENE visible
25 Jan -1.0 20:07:01 10° W 20:08:10 19° WNW 20:08:10 19° WNW visible
26 Jan -3.4 19:15:24 10° W 19:18:37 52° NNW 19:18:57 49° N visible
27 Jan -3.8 18:23:51 10° WSW 18:27:09 79° NNW 18:29:41 16° ENE visible
27 Jan -1.2 20:01:03 10° WNW 20:02:24 19° NW 20:02:24 19° NW visible
28 Jan -2.7 19:09:21 10° W 19:12:26 35° NNW 19:13:05 31° NNE visible
29 Jan -3.1 18:17:40 10° W 18:20:51 45° NNW 18:23:44 12° NE visible
29 Jan -1.4 19:54:58 10° WNW 19:56:27 20° NW 19:56:27 20° NW visible
